Year,Month,Day,Hour,Minute,Value (Times are PST for temperature in C)
2010,08,21,00,00,12.80
2010,08,21,00,01,12.80
2010,08,21,00,02,12.80
2010,08,21,00,03,12.80
2010,08,21,00,04,12.80
2010,08,21,00,05,12.80
2010,08,21,00,06,12.80
2010,08,21,00,07,12.70
2010,08,21,00,08,12.70
2010,08,21,00,09,12.70
2010,08,21,00,10,12.70
2010,08,21,00,11,12.70
2010,08,21,00,12,12.70
2010,08,21,00,13,12.70
2010,08,21,00,14,12.70
2010,08,21,00,15,12.60
2010,08,21,00,16,12.60
2010,08,21,00,17,12.60
2010,08,21,00,18,12.60
2010,08,21,00,19,12.60
2010,08,21,00,20,12.50
2010,08,21,00,21,12.50
2010,08,21,00,22,12.50
2010,08,21,00,23,12.50
2010,08,21,00,24,12.50
2010,08,21,00,25,12.50
2010,08,21,00,26,12.40
2010,08,21,00,27,12.40
2010,08,21,00,28,12.40
2010,08,21,00,29,12.40
2010,08,21,00,30,12.40
2010,08,21,00,31,12.40
2010,08,21,00,32,12.30
2010,08,21,00,33,12.30
2010,08,21,00,34,12.30
2010,08,21,00,35,12.30
2010,08,21,00,36,12.30
2010,08,21,00,37,12.30
2010,08,21,00,38,12.30
2010,08,21,00,39,12.30
2010,08,21,00,40,12.30
2010,08,21,00,41,12.30
2010,08,21,00,42,12.20
2010,08,21,00,43,12.20
2010,08,21,00,44,12.20
2010,08,21,00,45,12.20
2010,08,21,00,46,12.20
2010,08,21,00,47,12.10
2010,08,21,00,48,12.10
2010,08,21,00,49,12.10
2010,08,21,00,50,12.10
2010,08,21,00,51,12.10
2010,08,21,00,52,12.10
2010,08,21,00,53,12.10
2010,08,21,00,54,12.00
2010,08,21,00,55,12.00
2010,08,21,00,56,12.00
2010,08,21,00,57,12.00
2010,08,21,00,58,12.00
2010,08,21,00,59,12.00
2010,08,21,01,00,12.00
2010,08,21,01,01,11.90
2010,08,21,01,02,11.90
2010,08,21,01,03,11.90
2010,08,21,01,04,11.90
2010,08,21,01,05,11.90
2010,08,21,01,06,11.90
2010,08,21,01,07,11.80
2010,08,21,01,08,11.80
2010,08,21,01,09,11.80
2010,08,21,01,10,11.80
2010,08,21,01,11,11.80
2010,08,21,01,12,11.80
2010,08,21,01,13,11.80
2010,08,21,01,14,11.80
2010,08,21,01,15,11.80
2010,08,21,01,16,11.80
2010,08,21,01,17,11.80
2010,08,21,01,18,11.80
2010,08,21,01,19,11.80
2010,08,21,01,20,11.80
2010,08,21,01,21,11.80
2010,08,21,01,22,11.80
2010,08,21,01,23,11.70
2010,08,21,01,24,11.70
2010,08,21,01,25,11.70
2010,08,21,01,26,11.70
2010,08,21,01,27,11.70
2010,08,21,01,28,11.70
2010,08,21,01,29,11.70
2010,08,21,01,30,11.60
2010,08,21,01,31,11.60
2010,08,21,01,32,11.70
2010,08,21,01,33,11.70
2010,08,21,01,34,11.70
2010,08,21,01,35,11.70
2010,08,21,01,36,11.70
2010,08,21,01,37,11.70
2010,08,21,01,38,11.70
2010,08,21,01,39,11.70
2010,08,21,01,40,11.70
2010,08,21,01,41,11.70
2010,08,21,01,42,11.70
2010,08,21,01,43,11.70
2010,08,21,01,44,11.70
2010,08,21,01,45,11.70
2010,08,21,01,46,11.70
2010,08,21,01,47,11.60
2010,08,21,01,48,11.60
2010,08,21,01,49,11.60
2010,08,21,01,50,11.60
2010,08,21,01,51,11.60
2010,08,21,01,52,11.60
2010,08,21,01,53,11.60
2010,08,21,01,54,11.60
2010,08,21,01,55,11.60
2010,08,21,01,56,11.60
2010,08,21,01,57,11.60
2010,08,21,01,58,11.60
2010,08,21,01,59,11.60
2010,08,21,02,00,11.60
2010,08,21,02,01,11.60
2010,08,21,02,02,11.60
2010,08,21,02,03,11.60
2010,08,21,02,04,11.60
2010,08,21,02,05,11.60
2010,08,21,02,06,11.60
2010,08,21,02,07,11.60
2010,08,21,02,08,11.60
2010,08,21,02,09,11.50
2010,08,21,02,10,11.40
2010,08,21,02,11,11.40
2010,08,21,02,12,11.40
2010,08,21,02,13,11.40
2010,08,21,02,14,11.40
2010,08,21,02,15,11.40
2010,08,21,02,16,11.40
2010,08,21,02,17,11.40
2010,08,21,02,18,11.40
2010,08,21,02,19,11.40
2010,08,21,02,20,11.40
2010,08,21,02,21,11.40
2010,08,21,02,22,11.40
2010,08,21,02,23,11.40
2010,08,21,02,24,11.40
2010,08,21,02,25,11.40
2010,08,21,02,26,11.40
2010,08,21,02,27,11.40
2010,08,21,02,28,11.40
2010,08,21,02,29,11.40
2010,08,21,02,30,11.40
2010,08,21,02,31,11.40
2010,08,21,02,32,11.30
2010,08,21,02,33,11.30
2010,08,21,02,34,11.30
2010,08,21,02,35,11.30
2010,08,21,02,36,11.30
2010,08,21,02,37,11.30
2010,08,21,02,38,11.30
2010,08,21,02,39,11.30
2010,08,21,02,40,11.30
2010,08,21,02,41,11.30
2010,08,21,02,42,11.30
2010,08,21,02,43,11.30
2010,08,21,02,44,11.30
2010,08,21,02,45,11.30
2010,08,21,02,46,11.30
2010,08,21,02,47,11.30
2010,08,21,02,48,11.30
2010,08,21,02,49,11.20
2010,08,21,02,50,11.20
2010,08,21,02,51,11.20
2010,08,21,02,52,11.20
2010,08,21,02,53,11.20
2010,08,21,02,54,11.20
2010,08,21,02,55,11.20
2010,08,21,02,56,11.10
2010,08,21,02,57,11.10
2010,08,21,02,58,11.10
2010,08,21,02,59,11.10
2010,08,21,03,00,11.10
2010,08,21,03,01,11.10
2010,08,21,03,02,11.10
2010,08,21,03,03,11.10
2010,08,21,03,04,11.10
2010,08,21,03,05,11.00
2010,08,21,03,06,10.90
2010,08,21,03,07,10.90
2010,08,21,03,08,10.90
2010,08,21,03,09,10.90
2010,08,21,03,10,10.90
2010,08,21,03,11,10.90
2010,08,21,03,12,10.90
2010,08,21,03,13,10.90
2010,08,21,03,14,10.90
2010,08,21,03,15,10.90
2010,08,21,03,16,10.90
2010,08,21,03,17,10.90
2010,08,21,03,18,10.90
2010,08,21,03,19,10.90
2010,08,21,03,20,10.90
2010,08,21,03,21,10.90
2010,08,21,03,22,10.90
2010,08,21,03,23,10.90
2010,08,21,03,24,10.90
2010,08,21,03,25,10.80
2010,08,21,03,26,10.80
2010,08,21,03,27,10.80
2010,08,21,03,28,10.80
2010,08,21,03,29,10.80
2010,08,21,03,30,10.80
2010,08,21,03,31,10.70
2010,08,21,03,32,10.70
2010,08,21,03,33,10.70
2010,08,21,03,34,10.70
2010,08,21,03,35,10.70
2010,08,21,03,36,10.70
2010,08,21,03,37,10.70
2010,08,21,03,38,10.70
2010,08,21,03,39,10.70
2010,08,21,03,40,10.60
2010,08,21,03,41,10.60
2010,08,21,03,42,10.60
2010,08,21,03,43,10.60
2010,08,21,03,44,10.60
2010,08,21,03,45,10.60
2010,08,21,03,46,10.70
2010,08,21,03,47,10.70
2010,08,21,03,48,10.60
2010,08,21,03,49,10.60
2010,08,21,03,50,10.60
2010,08,21,03,51,10.60
2010,08,21,03,52,10.60
2010,08,21,03,53,10.60
2010,08,21,03,54,10.60
2010,08,21,03,55,10.60
2010,08,21,03,56,10.60
2010,08,21,03,57,10.60
2010,08,21,03,58,10.60
2010,08,21,03,59,10.60
2010,08,21,04,00,10.60
2010,08,21,04,01,10.60
2010,08,21,04,02,10.60
2010,08,21,04,03,10.60
2010,08,21,04,04,10.50
2010,08,21,04,05,10.40
2010,08,21,04,06,10.40
2010,08,21,04,07,10.50
2010,08,21,04,08,10.60
2010,08,21,04,09,10.60
2010,08,21,04,10,10.60
2010,08,21,04,11,10.50
2010,08,21,04,12,10.40
2010,08,21,04,13,10.40
2010,08,21,04,14,10.40
2010,08,21,04,15,10.40
2010,08,21,04,16,10.40
2010,08,21,04,17,10.40
2010,08,21,04,18,10.40
2010,08,21,04,19,10.40
2010,08,21,04,20,10.30
2010,08,21,04,21,10.30
2010,08,21,04,22,10.30
2010,08,21,04,23,10.30
2010,08,21,04,24,10.30
2010,08,21,04,25,10.30
2010,08,21,04,26,10.20
2010,08,21,04,27,10.30
2010,08,21,04,28,10.30
2010,08,21,04,29,10.30
2010,08,21,04,30,10.30
2010,08,21,04,31,10.20
2010,08,21,04,32,10.20
2010,08,21,04,33,10.20
2010,08,21,04,34,10.20
2010,08,21,04,35,10.20
2010,08,21,04,36,10.20
2010,08,21,04,37,10.20
2010,08,21,04,38,10.10
2010,08,21,04,39,10.10
2010,08,21,04,40,10.10
2010,08,21,04,41,10.10
2010,08,21,04,42,10.10
2010,08,21,04,43,10.10
2010,08,21,04,44,10.10
2010,08,21,04,45,10.10
2010,08,21,04,46,10.10
2010,08,21,04,47,10.10
2010,08,21,04,48,10.10
2010,08,21,04,49,10.10
2010,08,21,04,50,10.10
2010,08,21,04,51,10.10
2010,08,21,04,52,10.10
2010,08,21,04,53,10.10
2010,08,21,04,54,10.10
2010,08,21,04,55,10.10
2010,08,21,04,56,10.10
2010,08,21,04,57,10.10
2010,08,21,04,58,10.10
2010,08,21,04,59,10.10
2010,08,21,05,00,10.10
2010,08,21,05,01,10.10
2010,08,21,05,02,10.00
2010,08,21,05,03,9.90
2010,08,21,05,04,9.90
2010,08,21,05,05,9.90
2010,08,21,05,06,9.90
2010,08,21,05,07,9.90
2010,08,21,05,08,9.90
2010,08,21,05,09,9.90
2010,08,21,05,10,9.90
2010,08,21,05,11,9.90
2010,08,21,05,12,9.90
2010,08,21,05,13,9.90
2010,08,21,05,14,9.90
2010,08,21,05,15,9.90
2010,08,21,05,16,9.90
2010,08,21,05,17,9.90
2010,08,21,05,18,9.90
2010,08,21,05,19,9.90
2010,08,21,05,20,10.10
2010,08,21,05,21,10.10
2010,08,21,05,22,10.10
2010,08,21,05,23,10.10
2010,08,21,05,24,10.10
2010,08,21,05,25,10.10
2010,08,21,05,26,10.10
2010,08,21,05,27,10.10
2010,08,21,05,28,10.10
2010,08,21,05,29,10.00
2010,08,21,05,30,9.90
2010,08,21,05,31,9.90
2010,08,21,05,32,9.90
2010,08,21,05,33,9.90
2010,08,21,05,34,9.90
2010,08,21,05,35,9.90
2010,08,21,05,36,9.90
2010,08,21,05,37,9.80
2010,08,21,05,38,9.80
2010,08,21,05,39,9.80
2010,08,21,05,40,9.80
2010,08,21,05,41,9.80
2010,08,21,05,42,9.80
2010,08,21,05,43,9.80
2010,08,21,05,44,9.80
2010,08,21,05,45,9.70
2010,08,21,05,46,9.70
2010,08,21,05,47,9.80
2010,08,21,05,48,9.80
2010,08,21,05,49,9.80
2010,08,21,05,50,9.80
2010,08,21,05,51,9.80
2010,08,21,05,52,9.80
2010,08,21,05,53,9.80
2010,08,21,05,54,9.80
2010,08,21,05,55,9.80
2010,08,21,05,56,9.70
2010,08,21,05,57,9.80
2010,08,21,05,58,9.80
2010,08,21,05,59,9.80
2010,08,21,06,00,9.70
2010,08,21,06,01,9.70
2010,08,21,06,02,9.70
2010,08,21,06,03,9.70
2010,08,21,06,04,9.70
2010,08,21,06,05,9.70
2010,08,21,06,06,9.70
2010,08,21,06,07,9.70
2010,08,21,06,08,9.70
2010,08,21,06,09,9.70
2010,08,21,06,10,9.70
2010,08,21,06,11,9.70
2010,08,21,06,12,9.70
2010,08,21,06,13,9.60
2010,08,21,06,14,9.60
2010,08,21,06,15,9.60
2010,08,21,06,16,9.60
2010,08,21,06,17,9.50
2010,08,21,06,18,9.50
2010,08,21,06,19,9.50
2010,08,21,06,20,9.40
2010,08,21,06,21,9.40
2010,08,21,06,22,9.40
2010,08,21,06,23,9.40
2010,08,21,06,24,9.30
2010,08,21,06,25,9.30
2010,08,21,06,26,9.30
2010,08,21,06,27,9.30
2010,08,21,06,28,9.30
2010,08,21,06,29,9.30
2010,08,21,06,30,9.30
2010,08,21,06,31,9.40
2010,08,21,06,32,9.40
2010,08,21,06,33,9.40
2010,08,21,06,34,9.40
2010,08,21,06,35,9.50
2010,08,21,06,36,9.50
2010,08,21,06,37,9.50
2010,08,21,06,38,9.50
2010,08,21,06,39,9.50
2010,08,21,06,40,9.50
2010,08,21,06,41,9.50
2010,08,21,06,42,9.50
2010,08,21,06,43,9.60
2010,08,21,06,44,9.60
2010,08,21,06,45,9.60
2010,08,21,06,46,9.60
2010,08,21,06,47,9.60
2010,08,21,06,48,9.60
2010,08,21,06,49,9.60
2010,08,21,06,50,9.60
2010,08,21,06,51,9.60
2010,08,21,06,52,9.60
2010,08,21,06,53,9.60
2010,08,21,06,54,9.60
2010,08,21,06,55,9.60
2010,08,21,06,56,9.60
2010,08,21,06,57,9.60
2010,08,21,06,58,9.60
2010,08,21,06,59,9.60
2010,08,21,07,00,9.60
2010,08,21,07,01,9.60
2010,08,21,07,02,9.60
2010,08,21,07,03,9.60
2010,08,21,07,04,9.60
2010,08,21,07,05,9.60
2010,08,21,07,06,9.60
2010,08,21,07,07,9.60
2010,08,21,07,08,9.60
2010,08,21,07,09,9.60
2010,08,21,07,10,9.70
2010,08,21,07,11,9.70
2010,08,21,07,12,9.70
2010,08,21,07,13,9.70
2010,08,21,07,14,9.70
2010,08,21,07,15,9.70
2010,08,21,07,16,9.70
2010,08,21,07,17,9.70
2010,08,21,07,18,9.70
2010,08,21,07,19,9.80
2010,08,21,07,20,9.90
2010,08,21,07,21,9.90
2010,08,21,07,22,9.90
2010,08,21,07,23,10.00
2010,08,21,07,24,10.10
2010,08,21,07,25,10.10
2010,08,21,07,26,10.10
2010,08,21,07,27,10.10
2010,08,21,07,28,10.20
2010,08,21,07,29,10.20
2010,08,21,07,30,10.30
2010,08,21,07,31,10.40
2010,08,21,07,32,10.40
2010,08,21,07,33,10.40
2010,08,21,07,34,10.50
2010,08,21,07,35,10.60
2010,08,21,07,36,10.80
2010,08,21,07,37,11.00
2010,08,21,07,38,11.10
2010,08,21,07,39,11.30
2010,08,21,07,40,11.40
2010,08,21,07,41,11.60
2010,08,21,07,42,11.70
2010,08,21,07,43,11.80
2010,08,21,07,44,11.80
2010,08,21,07,45,11.80
2010,08,21,07,46,11.80
2010,08,21,07,47,11.80
2010,08,21,07,48,11.80
2010,08,21,07,49,11.70
2010,08,21,07,50,11.70
2010,08,21,07,51,11.70
2010,08,21,07,52,11.70
2010,08,21,07,53,11.60
2010,08,21,07,54,11.60
2010,08,21,07,55,11.60
2010,08,21,07,56,11.60
2010,08,21,07,57,11.60
2010,08,21,07,58,11.60
2010,08,21,07,59,11.70
2010,08,21,08,00,11.70
2010,08,21,08,01,11.80
2010,08,21,08,02,11.80
2010,08,21,08,03,11.80
2010,08,21,08,04,11.90
2010,08,21,08,05,11.90
2010,08,21,08,06,12.00
2010,08,21,08,07,12.00
2010,08,21,08,08,12.00
2010,08,21,08,09,12.10
2010,08,21,08,10,12.10
2010,08,21,08,11,12.10
2010,08,21,08,12,12.10
2010,08,21,08,13,12.10
2010,08,21,08,14,12.10
2010,08,21,08,15,12.10
2010,08,21,08,16,12.10
2010,08,21,08,17,12.10
2010,08,21,08,18,12.20
2010,08,21,08,19,12.20
2010,08,21,08,20,12.20
2010,08,21,08,21,12.30
2010,08,21,08,22,12.30
2010,08,21,08,23,12.30
2010,08,21,08,24,12.30
2010,08,21,08,25,12.30
2010,08,21,08,26,12.30
2010,08,21,08,27,12.30
2010,08,21,08,28,12.30
2010,08,21,08,29,12.40
2010,08,21,08,30,12.40
2010,08,21,08,31,12.40
2010,08,21,08,32,12.50
2010,08,21,08,33,12.50
2010,08,21,08,34,12.60
2010,08,21,08,35,12.60
2010,08,21,08,36,12.60
2010,08,21,08,37,12.60
2010,08,21,08,38,12.70
2010,08,21,08,39,12.70
2010,08,21,08,40,12.80
2010,08,21,08,41,12.80
2010,08,21,08,42,12.90
2010,08,21,08,43,13.00
2010,08,21,08,44,13.00
2010,08,21,08,45,13.10
2010,08,21,08,46,13.10
2010,08,21,08,47,13.10
2010,08,21,08,48,13.20
2010,08,21,08,49,13.20
2010,08,21,08,50,13.20
2010,08,21,08,51,13.30
2010,08,21,08,52,13.30
2010,08,21,08,53,13.30
2010,08,21,08,54,13.30
2010,08,21,08,55,13.30
2010,08,21,08,56,13.30
2010,08,21,08,57,13.30
2010,08,21,08,58,13.30
2010,08,21,08,59,13.30
2010,08,21,09,00,13.40
2010,08,21,09,01,13.40
2010,08,21,09,02,13.50
2010,08,21,09,03,13.60
2010,08,21,09,04,13.60
2010,08,21,09,05,13.60
2010,08,21,09,06,13.60
2010,08,21,09,07,13.70
2010,08,21,09,08,13.70
2010,08,21,09,09,13.70
2010,08,21,09,10,13.70
2010,08,21,09,11,13.80
2010,08,21,09,12,13.80
2010,08,21,09,13,13.80
2010,08,21,09,14,13.90
2010,08,21,09,15,13.90
2010,08,21,09,16,13.90
2010,08,21,09,17,13.90
2010,08,21,09,18,13.90
2010,08,21,09,19,13.90
2010,08,21,09,20,14.00
2010,08,21,09,21,14.00
2010,08,21,09,22,14.00
2010,08,21,09,23,14.10
2010,08,21,09,24,14.10
2010,08,21,09,25,14.20
2010,08,21,09,26,14.20
2010,08,21,09,27,14.20
2010,08,21,09,28,14.20
2010,08,21,09,29,14.20
2010,08,21,09,30,14.20
2010,08,21,09,31,14.30
2010,08,21,09,32,14.30
2010,08,21,09,33,14.30
2010,08,21,09,34,14.30
2010,08,21,09,35,14.30
2010,08,21,09,36,14.30
2010,08,21,09,37,14.40
2010,08,21,09,38,14.50
2010,08,21,09,39,14.40
2010,08,21,09,40,14.50
2010,08,21,09,41,14.40
2010,08,21,09,42,14.40
2010,08,21,09,43,14.40
2010,08,21,09,44,14.50
2010,08,21,09,45,14.50
2010,08,21,09,46,14.60
2010,08,21,09,47,14.60
2010,08,21,09,48,14.60
2010,08,21,09,49,14.70
2010,08,21,09,50,14.70
2010,08,21,09,51,14.80
2010,08,21,09,52,14.80
2010,08,21,09,53,14.80
2010,08,21,09,54,14.80
2010,08,21,09,55,14.80
2010,08,21,09,56,14.80
2010,08,21,09,57,14.80
2010,08,21,09,58,14.80
2010,08,21,09,59,14.80
2010,08,21,10,00,14.90
2010,08,21,10,01,14.90
2010,08,21,10,02,14.90
2010,08,21,10,03,14.90
2010,08,21,10,04,14.90
2010,08,21,10,05,14.90
2010,08,21,10,06,14.90
2010,08,21,10,07,14.90
2010,08,21,10,08,14.90
2010,08,21,10,09,14.90
2010,08,21,10,10,14.90
2010,08,21,10,11,14.90
2010,08,21,10,12,15.00
2010,08,21,10,13,15.00
2010,08,21,10,14,15.00
2010,08,21,10,15,15.00
2010,08,21,10,16,15.10
2010,08,21,10,17,15.20
2010,08,21,10,18,15.30
2010,08,21,10,19,15.40
2010,08,21,10,20,15.40
2010,08,21,10,21,15.50
2010,08,21,10,22,15.60
2010,08,21,10,23,15.60
2010,08,21,10,24,15.60
2010,08,21,10,25,15.50
2010,08,21,10,26,15.50
2010,08,21,10,27,15.40
2010,08,21,10,28,15.40
2010,08,21,10,29,15.40
2010,08,21,10,30,15.30
2010,08,21,10,31,15.30
2010,08,21,10,32,15.40
2010,08,21,10,33,15.40
2010,08,21,10,34,15.50
2010,08,21,10,35,15.50
2010,08,21,10,36,15.50
2010,08,21,10,37,15.50
2010,08,21,10,38,15.50
2010,08,21,10,39,15.50
2010,08,21,10,40,15.60
2010,08,21,10,41,15.60
2010,08,21,10,42,15.60
2010,08,21,10,43,15.50
2010,08,21,10,44,15.50
2010,08,21,10,45,15.70
2010,08,21,10,46,15.80
2010,08,21,10,47,15.70
2010,08,21,10,48,15.70
2010,08,21,10,49,15.80
2010,08,21,10,50,15.90
2010,08,21,10,51,16.00
2010,08,21,10,52,16.10
2010,08,21,10,53,16.10
2010,08,21,10,54,16.20
2010,08,21,10,55,16.30
2010,08,21,10,56,16.30
2010,08,21,10,57,16.30
2010,08,21,10,58,16.30
2010,08,21,10,59,16.30
2010,08,21,11,00,16.30
2010,08,21,11,01,16.30
2010,08,21,11,02,16.30
2010,08,21,11,03,16.30
2010,08,21,11,04,16.30
2010,08,21,11,05,16.30
2010,08,21,11,06,16.30
2010,08,21,11,07,16.20
2010,08,21,11,08,16.20
2010,08,21,11,09,16.10
2010,08,21,11,10,16.10
2010,08,21,11,11,16.10
2010,08,21,11,12,16.00
2010,08,21,11,13,16.10
2010,08,21,11,14,16.10
2010,08,21,11,15,16.10
2010,08,21,11,16,16.00
2010,08,21,11,17,15.90
2010,08,21,11,18,15.90
2010,08,21,11,19,15.90
2010,08,21,11,20,15.90
2010,08,21,11,21,15.90
2010,08,21,11,22,15.90
2010,08,21,11,23,15.80
2010,08,21,11,24,15.90
2010,08,21,11,25,16.00
2010,08,21,11,26,16.10
2010,08,21,11,27,16.10
2010,08,21,11,28,16.20
2010,08,21,11,29,16.40
2010,08,21,11,30,16.40
2010,08,21,11,31,16.40
2010,08,21,11,32,16.30
2010,08,21,11,33,16.30
2010,08,21,11,34,16.30
2010,08,21,11,35,16.40
2010,08,21,11,36,16.40
2010,08,21,11,37,16.40
2010,08,21,11,38,16.40
2010,08,21,11,39,16.30
2010,08,21,11,40,16.30
2010,08,21,11,41,16.40
2010,08,21,11,42,16.40
2010,08,21,11,43,16.40
2010,08,21,11,44,16.40
2010,08,21,11,45,16.40
2010,08,21,11,46,16.40
2010,08,21,11,47,16.40
2010,08,21,11,48,16.50
2010,08,21,11,49,16.60
2010,08,21,11,50,16.60
2010,08,21,11,51,16.40
2010,08,21,11,52,16.40
2010,08,21,11,53,16.60
2010,08,21,11,54,16.60
2010,08,21,11,55,16.50
2010,08,21,11,56,16.40
2010,08,21,11,57,16.40
2010,08,21,11,58,16.40
2010,08,21,11,59,16.40
2010,08,21,12,00,16.40
2010,08,21,12,01,16.40
2010,08,21,12,02,16.60
2010,08,21,12,03,16.60
2010,08,21,12,04,16.70
2010,08,21,12,05,16.80
2010,08,21,12,06,17.00
2010,08,21,12,07,17.00
2010,08,21,12,08,17.20
2010,08,21,12,09,17.30
2010,08,21,12,10,17.50
2010,08,21,12,11,17.60
2010,08,21,12,12,17.80
2010,08,21,12,13,17.80
2010,08,21,12,14,17.90
2010,08,21,12,15,18.10
2010,08,21,12,16,18.20
2010,08,21,12,17,18.20
2010,08,21,12,18,18.20
2010,08,21,12,19,18.20
2010,08,21,12,20,18.10
2010,08,21,12,21,18.20
2010,08,21,12,22,18.30
2010,08,21,12,23,18.40
2010,08,21,12,24,18.40
2010,08,21,12,25,18.40
2010,08,21,12,26,18.40
2010,08,21,12,27,18.40
2010,08,21,12,28,18.40
2010,08,21,12,29,18.40
2010,08,21,12,30,18.40
2010,08,21,12,31,18.40
2010,08,21,12,32,18.40
2010,08,21,12,33,18.40
2010,08,21,12,34,18.30
2010,08,21,12,35,18.30
2010,08,21,12,36,18.20
2010,08,21,12,37,18.20
2010,08,21,12,38,18.20
2010,08,21,12,39,18.30
2010,08,21,12,40,18.30
2010,08,21,12,41,18.30
2010,08,21,12,42,18.20
2010,08,21,12,43,18.20
2010,08,21,12,44,18.20
2010,08,21,12,45,18.20
2010,08,21,12,46,18.20
2010,08,21,12,47,18.20
2010,08,21,12,48,18.20
2010,08,21,12,49,18.10
2010,08,21,12,50,18.10
2010,08,21,12,51,18.00
2010,08,21,12,52,17.90
2010,08,21,12,53,17.80
2010,08,21,12,54,17.70
2010,08,21,12,55,17.70
2010,08,21,12,56,17.70
2010,08,21,12,57,17.50
2010,08,21,12,58,17.60
2010,08,21,12,59,17.70
2010,08,21,13,00,17.70
2010,08,21,13,01,17.70
2010,08,21,13,02,17.60
2010,08,21,13,03,17.70
2010,08,21,13,04,17.50
2010,08,21,13,05,17.40
2010,08,21,13,06,17.20
2010,08,21,13,07,17.00
2010,08,21,13,08,16.90
2010,08,21,13,09,16.90
2010,08,21,13,10,16.90
2010,08,21,13,11,16.90
2010,08,21,13,12,16.80
2010,08,21,13,13,16.60
2010,08,21,13,14,16.40
2010,08,21,13,15,16.40
2010,08,21,13,16,16.30
2010,08,21,13,17,16.30
2010,08,21,13,18,16.30
2010,08,21,13,19,16.40
2010,08,21,13,20,16.30
2010,08,21,13,21,16.30
2010,08,21,13,22,16.30
2010,08,21,13,23,16.30
2010,08,21,13,24,16.30
2010,08,21,13,25,16.30
2010,08,21,13,26,16.20
2010,08,21,13,27,16.10
2010,08,21,13,28,15.90
2010,08,21,13,29,15.60
2010,08,21,13,30,15.40
2010,08,21,13,31,15.20
2010,08,21,13,32,15.00
2010,08,21,13,33,14.90
2010,08,21,13,34,14.90
2010,08,21,13,35,15.00
2010,08,21,13,36,15.10
2010,08,21,13,37,15.00
2010,08,21,13,38,14.90
2010,08,21,13,39,14.90
2010,08,21,13,40,14.90
2010,08,21,13,41,15.00
2010,08,21,13,42,15.20
2010,08,21,13,43,15.30
2010,08,21,13,44,15.40
2010,08,21,13,45,15.40
2010,08,21,13,46,15.50
2010,08,21,13,47,15.60
2010,08,21,13,48,15.70
2010,08,21,13,49,15.70
2010,08,21,13,50,15.70
2010,08,21,13,51,15.70
2010,08,21,13,52,15.60
2010,08,21,13,53,15.70
2010,08,21,13,54,15.80
2010,08,21,13,55,15.90
2010,08,21,13,56,16.00
2010,08,21,13,57,16.20
2010,08,21,13,58,16.30
2010,08,21,13,59,16.70
2010,08,21,14,00,16.80
2010,08,21,14,01,17.00
2010,08,21,14,02,17.10
2010,08,21,14,03,17.20
2010,08,21,14,04,17.30
2010,08,21,14,05,17.30
2010,08,21,14,06,17.40
2010,08,21,14,07,17.40
2010,08,21,14,08,17.40
2010,08,21,14,09,17.30
2010,08,21,14,10,17.30
2010,08,21,14,11,17.30
2010,08,21,14,12,17.30
2010,08,21,14,13,17.50
2010,08,21,14,14,17.60
2010,08,21,14,15,17.70
2010,08,21,14,16,17.70
2010,08,21,14,17,17.80
2010,08,21,14,18,17.90
2010,08,21,14,19,18.10
2010,08,21,14,20,18.30
2010,08,21,14,21,18.40
2010,08,21,14,22,18.50
2010,08,21,14,23,18.60
2010,08,21,14,24,18.70
2010,08,21,14,25,18.90
2010,08,21,14,26,18.90
2010,08,21,14,27,18.80
2010,08,21,14,28,18.80
2010,08,21,14,29,18.80
2010,08,21,14,30,18.80
2010,08,21,14,31,18.90
2010,08,21,14,32,18.80
2010,08,21,14,33,18.90
2010,08,21,14,34,18.90
2010,08,21,14,35,19.00
2010,08,21,14,36,19.10
2010,08,21,14,37,19.10
2010,08,21,14,38,19.20
2010,08,21,14,39,19.30
2010,08,21,14,40,19.50
2010,08,21,14,41,19.80
2010,08,21,14,42,20.20
2010,08,21,14,43,20.60
2010,08,21,14,44,21.10
2010,08,21,14,45,21.40
2010,08,21,14,46,21.70
2010,08,21,14,47,21.90
2010,08,21,14,48,22.10
2010,08,21,14,49,22.10
2010,08,21,14,50,22.10
2010,08,21,14,51,22.20
2010,08,21,14,52,22.30
2010,08,21,14,53,22.20
2010,08,21,14,54,22.30
2010,08,21,14,55,22.40
2010,08,21,14,56,22.50
2010,08,21,14,57,22.50
2010,08,21,14,58,22.50
2010,08,21,14,59,22.60
2010,08,21,15,00,22.70
2010,08,21,15,01,22.70
2010,08,21,15,02,22.70
2010,08,21,15,03,22.50
2010,08,21,15,04,22.50
2010,08,21,15,05,22.60
2010,08,21,15,06,22.60
2010,08,21,15,07,22.50
2010,08,21,15,08,22.50
2010,08,21,15,09,22.40
2010,08,21,15,10,22.40
2010,08,21,15,11,22.30
2010,08,21,15,12,22.30
2010,08,21,15,13,22.30
2010,08,21,15,14,22.40
2010,08,21,15,15,22.60
2010,08,21,15,16,22.60
2010,08,21,15,17,22.60
2010,08,21,15,18,22.70
2010,08,21,15,19,22.70
2010,08,21,15,20,22.80
2010,08,21,15,21,22.70
2010,08,21,15,22,22.60
2010,08,21,15,23,22.60
2010,08,21,15,24,22.60
2010,08,21,15,25,22.40
2010,08,21,15,26,22.40
2010,08,21,15,27,22.40
2010,08,21,15,28,22.30
2010,08,21,15,29,22.20
2010,08,21,15,30,22.00
2010,08,21,15,31,22.10
2010,08,21,15,32,22.30
2010,08,21,15,33,22.40
2010,08,21,15,34,22.50
2010,08,21,15,35,22.40
2010,08,21,15,36,22.30
2010,08,21,15,37,22.30
2010,08,21,15,38,22.20
2010,08,21,15,39,22.20
2010,08,21,15,40,22.20
2010,08,21,15,41,22.20
2010,08,21,15,42,22.30
2010,08,21,15,43,22.30
2010,08,21,15,44,22.30
2010,08,21,15,45,22.30
2010,08,21,15,46,22.40
2010,08,21,15,47,22.50
2010,08,21,15,48,22.50
2010,08,21,15,49,22.50
2010,08,21,15,50,22.50
2010,08,21,15,51,22.50
2010,08,21,15,52,22.60
2010,08,21,15,53,22.60
2010,08,21,15,54,22.70
2010,08,21,15,55,22.70
2010,08,21,15,56,22.80
2010,08,21,15,57,22.70
2010,08,21,15,58,22.70
2010,08,21,15,59,22.80
2010,08,21,16,00,22.90
2010,08,21,16,01,22.90
2010,08,21,16,02,22.90
2010,08,21,16,03,22.90
2010,08,21,16,04,22.90
2010,08,21,16,05,22.90
2010,08,21,16,06,22.80
2010,08,21,16,07,22.90
2010,08,21,16,08,22.90
2010,08,21,16,09,22.80
2010,08,21,16,10,22.80
2010,08,21,16,11,22.70
2010,08,21,16,12,22.70
2010,08,21,16,13,22.70
2010,08,21,16,14,22.60
2010,08,21,16,15,22.60
2010,08,21,16,16,22.60
2010,08,21,16,17,22.50
2010,08,21,16,18,22.40
2010,08,21,16,19,22.30
2010,08,21,16,20,22.40
2010,08,21,16,21,22.40
2010,08,21,16,22,22.40
2010,08,21,16,23,22.40
2010,08,21,16,24,22.40
2010,08,21,16,25,22.30
2010,08,21,16,26,22.30
2010,08,21,16,27,22.30
2010,08,21,16,28,22.30
2010,08,21,16,29,22.30
2010,08,21,16,30,22.30
2010,08,21,16,31,22.30
2010,08,21,16,32,22.30
2010,08,21,16,33,22.40
2010,08,21,16,34,22.50
2010,08,21,16,35,22.60
2010,08,21,16,36,22.70
2010,08,21,16,37,22.70
2010,08,21,16,38,22.60
2010,08,21,16,39,22.60
2010,08,21,16,40,22.50
2010,08,21,16,41,22.50
2010,08,21,16,42,22.30
2010,08,21,16,43,22.20
2010,08,21,16,44,22.10
2010,08,21,16,45,22.00
2010,08,21,16,46,22.00
2010,08,21,16,47,22.00
2010,08,21,16,48,22.00
2010,08,21,16,49,22.00
2010,08,21,16,50,22.00
2010,08,21,16,51,21.90
2010,08,21,16,52,21.80
2010,08,21,16,53,21.90
2010,08,21,16,54,22.00
2010,08,21,16,55,22.10
2010,08,21,16,56,21.90
2010,08,21,16,57,21.80
2010,08,21,16,58,21.70
2010,08,21,16,59,21.60
2010,08,21,17,00,21.50
2010,08,21,17,01,21.40
2010,08,21,17,02,21.60
2010,08,21,17,03,21.60
2010,08,21,17,04,21.60
2010,08,21,17,05,21.60
2010,08,21,17,06,21.60
2010,08,21,17,07,21.60
2010,08,21,17,08,21.60
2010,08,21,17,09,21.60
2010,08,21,17,10,21.60
2010,08,21,17,11,21.70
2010,08,21,17,12,21.80
2010,08,21,17,13,21.80
2010,08,21,17,14,21.90
2010,08,21,17,15,22.00
2010,08,21,17,16,22.00
2010,08,21,17,17,22.00
2010,08,21,17,18,22.00
2010,08,21,17,19,22.00
2010,08,21,17,20,22.00
2010,08,21,17,21,21.90
2010,08,21,17,22,21.90
2010,08,21,17,23,21.80
2010,08,21,17,24,21.80
2010,08,21,17,25,21.80